When you browse on this site, cookies collect data to enhance your experience and personalize the content and advertising you see.
Visit our Privacy Policy to learn more. By continuing to use the site, you agree to this use of cookies and data.
EN

Hourly Weather Oran

Today, 15 July, Wednesday

Time Temperature Precipitation Wind Pressure Humidity
00:00 +25°C° 0 mm 4 mps 750 mmHg 80%
01:00 +24°C° 0 mm 3 mps 749 mmHg 82%
02:00 +24°C° 0 mm 3 mps 749 mmHg 84%
03:00 +24°C° 0 mm 3 mps 749 mmHg 86%
04:00 +24°C° 0 mm 3 mps 749 mmHg 83%
05:00 +24°C° 0 mm 3 mps 749 mmHg 81%
06:00 +25°C° 0 mm 3 mps 749 mmHg 79%
07:00 +27°C° 0 mm 4 mps 750 mmHg 69%
08:00 +29°C° 0 mm 4 mps 750 mmHg 58%
09:00 +32°C° 0 mm 5 mps 750 mmHg 48%
10:00 +33°C° 0 mm 6 mps 750 mmHg 44%
11:00 +35°C° 0 mm 6 mps 750 mmHg 40%
12:00 +36°C° 0 mm 7 mps 750 mmHg 36%
13:00 +37°C° 0 mm 8 mps 749 mmHg 38%
14:00 +35°C° 0 mm 8 mps 749 mmHg 40%
15:00 +35°C° 0 mm 9 mps 749 mmHg 42%
16:00 +34°C° 0 mm 9 mps 748 mmHg 44%
17:00 +32°C° 0 mm 9 mps 748 mmHg 46%
18:00 +31°C° 0 mm 8 mps 748 mmHg 48%
19:00 +29°C° 0 mm 7 mps 749 mmHg 51%
20:00 +29°C° 0 mm 6 mps 749 mmHg 54%
21:00 +28°C° 0 mm 5 mps 750 mmHg 57%
22:00 +27°C° 0 mm 5 mps 750 mmHg 59%
23:00 +27°C° 0 mm 4 mps 750 mmHg 62%

Tomorrow, 16 July, Thursday

Time Temperature Precipitation Wind Pressure Humidity
00:00 +26°C° 0 mm 3 mps 750 mmHg 64%
01:00 +26°C° 0 mm 4 mps 750 mmHg 68%
02:00 +25°C° 0 mm 4 mps 750 mmHg 71%
03:00 +25°C° 0 mm 5 mps 750 mmHg 74%
04:00 +25°C° 0 mm 4 mps 750 mmHg 74%
05:00 +26°C° 0 mm 4 mps 750 mmHg 73%
06:00 +26°C° 0 mm 3 mps 750 mmHg 72%
07:00 +28°C° 0 mm 4 mps 751 mmHg 64%
08:00 +30°C° 0 mm 5 mps 751 mmHg 56%
09:00 +32°C° 0 mm 5 mps 751 mmHg 47%
10:00 +34°C° 0 mm 6 mps 751 mmHg 43%
11:00 +35°C° 0 mm 6 mps 751 mmHg 39%
12:00 +38°C° 0 mm 7 mps 751 mmHg 35%
13:00 +38°C° 0 mm 7 mps 750 mmHg 35%
14:00 +37°C° 0 mm 8 mps 750 mmHg 36%
15:00 +37°C° 0 mm 9 mps 749 mmHg 37%
16:00 +35°C° 0 mm 8 mps 749 mmHg 38%
17:00 +34°C° 0 mm 8 mps 749 mmHg 38%
18:00 +33°C° 0 mm 8 mps 749 mmHg 39%
19:00 +32°C° 0 mm 7 mps 750 mmHg 43%
20:00 +29°C° 0 mm 5 mps 750 mmHg 47%
21:00 +28°C° 0 mm 4 mps 751 mmHg 51%
22:00 +28°C° 0 mm 4 mps 751 mmHg 54%
23:00 +27°C° 0 mm 4 mps 751 mmHg 57%

Day after tomorrow, 17 July, Friday

Time Temperature Precipitation Wind Pressure Humidity
00:00 +26°C° 0 mm 3 mps 751 mmHg 61%
01:00 +26°C° 0 mm 3 mps 751 mmHg 63%
02:00 +25°C° 0 mm 3 mps 750 mmHg 66%
03:00 +25°C° 0 mm 3 mps 750 mmHg 69%
04:00 +25°C° 0 mm 3 mps 750 mmHg 69%
05:00 +26°C° 0 mm 3 mps 750 mmHg 70%
06:00 +26°C° 0 mm 3 mps 750 mmHg 70%
07:00 +28°C° 0 mm 3 mps 750 mmHg 62%
08:00 +29°C° 0 mm 3 mps 750 mmHg 54%
09:00 +32°C° 0 mm 4 mps 750 mmHg 47%
10:00 +33°C° 0 mm 4 mps 750 mmHg 43%
11:00 +35°C° 0 mm 5 mps 750 mmHg 39%
12:00 +36°C° 0 mm 5 mps 750 mmHg 35%
13:00 +36°C° 0 mm 5 mps 750 mmHg 35%
14:00 +36°C° 0 mm 6 mps 749 mmHg 35%
15:00 +36°C° 0 mm 6 mps 749 mmHg 35%
16:00 +35°C° 0 mm 6 mps 749 mmHg 38%
17:00 +34°C° 0 mm 6 mps 748 mmHg 40%
18:00 +32°C° 0 mm 6 mps 748 mmHg 43%
19:00 +30°C° 0 mm 5 mps 749 mmHg 47%
20:00 +29°C° 0 mm 4 mps 749 mmHg 51%
21:00 +27°C° 0 mm 3 mps 750 mmHg 55%
22:00 +27°C° 0 mm 3 mps 750 mmHg 59%
23:00 +26°C° 0 mm 2 mps 750 mmHg 63%

18 July, Saturday

Time Temperature Precipitation Wind Pressure Humidity
00:00 +26°C° 0 mm 2 mps 750 mmHg 68%
01:00 +25°C° 0 mm 2 mps 750 mmHg 70%
02:00 +25°C° 0 mm 3 mps 750 mmHg 73%
03:00 +25°C° 0 mm 3 mps 750 mmHg 75%
04:00 +25°C° 0 mm 3 mps 750 mmHg 76%
05:00 +25°C° 0 mm 3 mps 750 mmHg 77%
06:00 +25°C° 0 mm 3 mps 750 mmHg 78%
07:00 +27°C° 0 mm 3 mps 750 mmHg 69%
08:00 +29°C° 0 mm 3 mps 750 mmHg 61%
09:00 +30°C° 0 mm 3 mps 750 mmHg 52%
10:00 +33°C° 0 mm 4 mps 750 mmHg 47%
11:00 +34°C° 0 mm 5 mps 750 mmHg 43%
12:00 +36°C° 0 mm 5 mps 750 mmHg 38%
13:00 +36°C° 0 mm 6 mps 750 mmHg 38%
14:00 +36°C° 0 mm 6 mps 750 mmHg 39%
15:00 +35°C° 0 mm 7 mps 749 mmHg 39%
16:00 +34°C° 0 mm 6 mps 749 mmHg 41%
17:00 +33°C° 0 mm 6 mps 749 mmHg 43%
18:00 +32°C° 0 mm 6 mps 749 mmHg 44%
19:00 +30°C° 0 mm 5 mps 750 mmHg 49%
20:00 +28°C° 0 mm 4 mps 750 mmHg 53%
21:00 +27°C° 0 mm 4 mps 751 mmHg 58%
22:00 +26°C° 0 mm 3 mps 751 mmHg 61%
23:00 +26°C° 0 mm 3 mps 751 mmHg 64%

19 July, Sunday

Time Temperature Precipitation Wind Pressure Humidity
00:00 +25°C° 0 mm 2 mps 751 mmHg 67%
01:00 +25°C° 0 mm 2 mps 750 mmHg 70%
02:00 +24°C° 0 mm 2 mps 750 mmHg 72%
03:00 +24°C° 0 mm 2 mps 750 mmHg 74%
04:00 +24°C° 0 mm 2 mps 750 mmHg 74%
05:00 +25°C° 0 mm 2 mps 751 mmHg 73%
06:00 +25°C° 0 mm 2 mps 751 mmHg 73%
07:00 +27°C° 0 mm 2 mps 751 mmHg 63%
08:00 +29°C° 0 mm 2 mps 751 mmHg 53%
09:00 +31°C° 0 mm 2 mps 752 mmHg 44%
10:00 +33°C° 0 mm 3 mps 752 mmHg 38%
11:00 +35°C° 0 mm 3 mps 751 mmHg 32%
12:00 +37°C° 0 mm 4 mps 751 mmHg 27%
13:00 +37°C° 0 mm 4 mps 751 mmHg 26%
14:00 +37°C° 0 mm 5 mps 751 mmHg 25%
15:00 +37°C° 0 mm 5 mps 750 mmHg 24%
16:00 +36°C° 0 mm 5 mps 750 mmHg 26%
17:00 +35°C° 0 mm 5 mps 750 mmHg 28%
18:00 +34°C° 0 mm 5 mps 750 mmHg 30%
19:00 +33°C° 0 mm 5 mps 750 mmHg 33%
20:00 +30°C° 0 mm 4 mps 750 mmHg 36%
21:00 +28°C° 0 mm 3 mps 751 mmHg 39%
22:00 +28°C° 0 mm 3 mps 751 mmHg 39%
23:00 +27°C° 0 mm 2 mps 750 mmHg 39%

20 July, Monday

Time Temperature Precipitation Wind Pressure Humidity
00:00 +27°C° 0 mm 1 mps 750 mmHg 39%
01:00 +26°C° 0 mm 2 mps 750 mmHg 52%
02:00 +25°C° 0 mm 2 mps 750 mmHg 65%
03:00 +24°C° 0 mm 3 mps 750 mmHg 78%
04:00 +24°C° 0 mm 2 mps 750 mmHg 77%
05:00 +24°C° 0 mm 2 mps 750 mmHg 77%
06:00 +25°C° 0 mm 2 mps 750 mmHg 76%
07:00 +27°C° 0 mm 1 mps 750 mmHg 64%
08:00 +29°C° 0 mm 1 mps 751 mmHg 53%
09:00 +31°C° 0 mm 1 mps 751 mmHg 41%
10:00 +34°C° 0 mm 2 mps 750 mmHg 36%
11:00 +36°C° 0 mm 2 mps 750 mmHg 31%
12:00 +38°C° 0 mm 3 mps 750 mmHg 26%
13:00 +38°C° 0 mm 3 mps 750 mmHg 25%
14:00 +40°C° 0 mm 4 mps 749 mmHg 25%
15:00 +40°C° 0 mm 5 mps 749 mmHg 24%
16:00 +39°C° 0 mm 5 mps 749 mmHg 25%
17:00 +37°C° 0 mm 5 mps 748 mmHg 26%
18:00 +35°C° 0 mm 5 mps 748 mmHg 27%
19:00 +33°C° 0 mm 4 mps 749 mmHg 31%
20:00 +31°C° 0 mm 3 mps 749 mmHg 34%
21:00 +29°C° 0 mm 1 mps 749 mmHg 38%
22:00 +28°C° 0 mm 2 mps 749 mmHg 46%
23:00 +27°C° 0 mm 3 mps 749 mmHg 55%
Show more